ARG1365 SPJC-SABE

Flight info

Callsign ARG1365
Flight time 3h 34m
Altitude FL330
Route ITAV3F SCO UL550 ROS UT672 MULTA UW24 SNT SNT8Q
Aircraft B38M/M-SDE2E3FGHIRWXY/LB1

Departure

Time 2026-04-30 19:05
Airport Jorge Chávez International Airport (SPJC)

Arrival

Time 2026-04-30 22:39
Airport Aeroparque Jorge Newbery (SABE)
Time Latitude Longitude Altitude Speed Heading
2026-04-30 18:40 -12.02274 -77.10995 95 ft 0 kts 66°
2026-04-30 18:53 -12.02277 -77.11002 94 ft 4 kts 66°
2026-04-30 18:53 -12.02288 -77.11027 96 ft 4 kts 66°
2026-04-30 18:53 -12.02297 -77.11050 94 ft 4 kts 62°
2026-04-30 18:53 -12.02313 -77.11065 93 ft 4 kts
2026-04-30 18:54 -12.02337 -77.11059 93 ft 2 kts 334°
2026-04-30 18:54 -12.02342 -77.11057 95 ft 0 kts 334°
2026-04-30 18:58 -12.02339 -77.11058 93 ft 2 kts 334°
2026-04-30 18:59 -12.02274 -77.11089 96 ft 8 kts 335°
2026-04-30 19:00 -12.02076 -77.11150 93 ft 13 kts 334°
2026-04-30 19:00 -12.01988 -77.11193 90 ft 16 kts 334°
2026-04-30 19:00 -12.01845 -77.11388 81 ft 19 kts 327°
2026-04-30 19:01 -12.01580 -77.11521 74 ft 23 kts 334°
2026-04-30 19:01 -12.01444 -77.11589 73 ft 21 kts 334°
2026-04-30 19:02 -12.01157 -77.11731 70 ft 25 kts 334°
2026-04-30 19:02 -12.00873 -77.11871 60 ft 16 kts 334°
2026-04-30 19:03 -12.00687 -77.11979 60 ft 11 kts 300°
2026-04-30 19:03 -12.00784 -77.12105 51 ft 16 kts 175°
2026-04-30 19:04 -12.01167 -77.11937 58 ft 77 kts 154°
2026-04-30 19:04 -12.02837 -77.11118 115 ft 178 kts 155°
2026-04-30 19:05 -12.05113 -77.09970 1291 ft 181 kts 156°
2026-04-30 19:05 -12.07482 -77.08808 2250 ft 209 kts 155°
2026-04-30 19:06 -12.10404 -77.07370 3150 ft 245 kts 153°
2026-04-30 19:06 -12.11985 -77.06593 3730 ft 262 kts 154°
2026-04-30 19:06 -12.15656 -77.05994 4979 ft 278 kts 199°
2026-04-30 19:07 -12.18614 -77.08435 5608 ft 280 kts 229°
2026-04-30 19:07 -12.19945 -77.09886 5749 ft 281 kts 228°
2026-04-30 19:08 -12.22639 -77.12784 5977 ft 282 kts 228°
2026-04-30 19:08 -12.25344 -77.15688 5995 ft 282 kts 228°
2026-04-30 19:08 -12.26695 -77.17138 6002 ft 282 kts 228°
2026-04-30 19:09 -12.29843 -77.19401 6748 ft 285 kts 193°
2026-04-30 19:09 -12.31838 -77.19450 7409 ft 291 kts 171°
2026-04-30 19:09 -12.33834 -77.19054 8121 ft 296 kts 169°
2026-04-30 19:10 -12.37897 -77.18221 9569 ft 301 kts 169°
2026-04-30 19:10 -12.42087 -77.17332 10541 ft 323 kts 168°
2026-04-30 19:11 -12.44337 -77.16850 10826 ft 339 kts 168°
2026-04-30 19:11 -12.49044 -77.15839 11926 ft 349 kts 168°
2026-04-30 19:11 -12.51425 -77.15328 12567 ft 351 kts 167°
2026-04-30 19:12 -12.53814 -77.14814 13235 ft 353 kts 167°
2026-04-30 19:12 -12.56219 -77.14298 13862 ft 355 kts 167°
2026-04-30 19:12 -12.58642 -77.13776 14397 ft 359 kts 167°
2026-04-30 19:13 -12.63570 -77.12717 15446 ft 366 kts 167°
2026-04-30 19:13 -12.68594 -77.11636 16463 ft 373 kts 166°
2026-04-30 19:13 -12.71142 -77.11087 16966 ft 376 kts 166°
2026-04-30 19:14 -12.73711 -77.10534 17461 ft 380 kts 166°
2026-04-30 19:14 -12.76302 -77.09976 17941 ft 383 kts 166°
2026-04-30 19:14 -12.78914 -77.09414 18366 ft 386 kts 166°
2026-04-30 19:14 -12.81548 -77.08848 18794 ft 389 kts 166°
2026-04-30 19:15 -12.84199 -77.08277 19205 ft 391 kts 166°
2026-04-30 19:15 -12.89547 -77.07124 20021 ft 396 kts 167°
2026-04-30 19:15 -12.92249 -77.06542 20428 ft 399 kts 167°
2026-04-30 19:16 -12.94967 -77.05955 20821 ft 401 kts 167°
2026-04-30 19:16 -12.97698 -77.05366 21219 ft 404 kts 167°
2026-04-30 19:16 -13.03223 -77.04174 21981 ft 409 kts 167°
2026-04-30 19:17 -13.05936 -77.03319 22343 ft 410 kts 153°
2026-04-30 19:17 -13.10269 -76.99593 23042 ft 413 kts 131°
2026-04-30 19:17 -13.12171 -76.97372 23374 ft 417 kts 130°
2026-04-30 19:18 -13.15315 -76.93590 23882 ft 421 kts 130°
2026-04-30 19:18 -13.17837 -76.90506 24242 ft 426 kts 129°
2026-04-30 19:18 -13.19737 -76.88172 24528 ft 429 kts 129°
2026-04-30 19:19 -13.21647 -76.85821 24830 ft 431 kts 129°
2026-04-30 19:19 -13.23568 -76.83454 25122 ft 434 kts 130°
2026-04-30 19:19 -13.27443 -76.78679 25686 ft 439 kts 130°
2026-04-30 19:20 -13.29399 -76.76268 25972 ft 442 kts 130°
2026-04-30 19:20 -13.31368 -76.73840 26241 ft 445 kts 130°
2026-04-30 19:20 -13.35340 -76.68939 26781 ft 450 kts 130°
2026-04-30 19:21 -13.37346 -76.66464 27045 ft 453 kts 130°
2026-04-30 19:21 -13.41391 -76.61469 27562 ft 458 kts 130°
2026-04-30 19:22 -13.45479 -76.56418 28072 ft 463 kts 130°
2026-04-30 19:22 -13.51695 -76.48731 28803 ft 471 kts 130°
2026-04-30 19:23 -13.58014 -76.40912 29505 ft 479 kts 130°
2026-04-30 19:24 -13.62279 -76.35629 29951 ft 483 kts 130°
2026-04-30 19:24 -13.64426 -76.32969 30143 ft 486 kts 130°
2026-04-30 19:24 -13.68746 -76.27613 30536 ft 489 kts 129°
2026-04-30 19:25 -13.75678 -76.19893 31109 ft 493 kts 144°
2026-04-30 19:26 -13.81125 -76.15556 31422 ft 499 kts 142°
2026-04-30 19:26 -13.86636 -76.11197 31805 ft 503 kts 142°
2026-04-30 19:26 -13.89406 -76.09011 31988 ft 504 kts 142°
2026-04-30 19:27 -13.94982 -76.04608 32383 ft 507 kts 142°
2026-04-30 19:27 -14.00570 -76.00192 32845 ft 508 kts 142°
2026-04-30 19:28 -14.03374 -75.97975 32925 ft 509 kts 142°
2026-04-30 19:29 -14.14564 -75.89124 32913 ft 508 kts 142°
2026-04-30 19:30 -14.25760 -75.80255 32901 ft 509 kts 142°
2026-04-30 19:31 -14.36961 -75.71371 32897 ft 509 kts 142°
2026-04-30 19:31 -14.45369 -75.64695 32899 ft 509 kts 142°
2026-04-30 19:32 -14.50978 -75.60238 32901 ft 510 kts 142°
2026-04-30 19:32 -14.56584 -75.55780 32899 ft 510 kts 142°
2026-04-30 19:33 -14.62193 -75.51316 32902 ft 510 kts 142°
2026-04-30 19:33 -14.67801 -75.46851 32904 ft 510 kts 142°
2026-04-30 19:34 -14.73412 -75.42380 32893 ft 510 kts 142°
2026-04-30 19:35 -14.81827 -75.35670 32894 ft 511 kts 142°
2026-04-30 19:35 -14.87442 -75.31188 32906 ft 511 kts 142°
2026-04-30 19:36 -14.93057 -75.26703 32904 ft 511 kts 142°
2026-04-30 19:36 -15.01482 -75.19969 32904 ft 511 kts 142°
2026-04-30 19:37 -15.07094 -75.15479 32907 ft 512 kts 142°
2026-04-30 19:37 -15.12714 -75.10980 32918 ft 512 kts 142°
2026-04-30 19:38 -15.18336 -75.06476 32898 ft 512 kts 142°
2026-04-30 19:38 -15.23959 -75.01968 32903 ft 512 kts 142°
2026-04-30 19:39 -15.29579 -74.97460 32910 ft 512 kts 142°
2026-04-30 19:39 -15.35200 -74.92948 32913 ft 512 kts 142°
2026-04-30 19:40 -15.40823 -74.88430 32914 ft 512 kts 142°
2026-04-30 19:40 -15.46444 -74.83911 32909 ft 513 kts 142°
2026-04-30 19:41 -15.52071 -74.79384 32914 ft 513 kts 142°
2026-04-30 19:41 -15.57700 -74.74852 32919 ft 513 kts 142°
2026-04-30 19:42 -15.63332 -74.70315 32916 ft 514 kts 142°
2026-04-30 19:42 -15.68965 -74.65774 32915 ft 514 kts 142°
2026-04-30 19:43 -15.74601 -74.61227 32916 ft 514 kts 142°
2026-04-30 19:44 -15.83048 -74.54406 32915 ft 514 kts 142°
2026-04-30 19:44 -15.88676 -74.49857 32918 ft 514 kts 142°
2026-04-30 19:45 -15.94310 -74.45300 32913 ft 514 kts 142°
2026-04-30 19:45 -15.99946 -74.40738 32913 ft 514 kts 142°
2026-04-30 19:46 -16.05583 -74.36171 32917 ft 515 kts 142°
2026-04-30 19:46 -16.11217 -74.31605 32915 ft 515 kts 142°
2026-04-30 19:47 -16.16853 -74.27033 32914 ft 515 kts 142°
2026-04-30 19:47 -16.22493 -74.22454 32915 ft 515 kts 142°
2026-04-30 19:48 -16.28133 -74.17872 32919 ft 515 kts 142°
2026-04-30 19:48 -16.33771 -74.13288 32916 ft 516 kts 142°
2026-04-30 19:49 -16.39411 -74.08700 32910 ft 516 kts 142°
2026-04-30 19:49 -16.47872 -74.01810 32917 ft 516 kts 142°
2026-04-30 19:50 -16.53513 -73.97212 32917 ft 516 kts 142°
2026-04-30 19:50 -16.59151 -73.92608 32917 ft 516 kts 142°
2026-04-30 19:51 -16.64795 -73.87997 32922 ft 517 kts 142°
2026-04-30 19:51 -16.70439 -73.83384 32918 ft 516 kts 142°
2026-04-30 19:52 -16.76080 -73.78769 32918 ft 516 kts 142°
2026-04-30 19:52 -16.81720 -73.74152 32921 ft 516 kts 142°
2026-04-30 19:53 -16.87357 -73.69532 32920 ft 516 kts 142°
2026-04-30 19:53 -16.92996 -73.64908 32923 ft 516 kts 142°
2026-04-30 19:54 -16.98636 -73.60280 32924 ft 517 kts 142°
2026-04-30 19:54 -17.04277 -73.55646 32924 ft 517 kts 142°
2026-04-30 19:55 -17.09918 -73.51010 32925 ft 517 kts 142°
2026-04-30 19:55 -17.12744 -73.48685 33109 ft 518 kts 142°
2026-04-30 19:55 -17.15571 -73.46359 33354 ft 519 kts 142°
2026-04-30 19:56 -17.18407 -73.44025 33559 ft 520 kts 142°
2026-04-30 19:56 -17.21243 -73.41690 33789 ft 521 kts 142°
2026-04-30 19:56 -17.24085 -73.39349 33981 ft 522 kts 142°
2026-04-30 19:56 -17.26934 -73.37002 34175 ft 522 kts 142°
2026-04-30 19:57 -17.29782 -73.34653 34389 ft 522 kts 142°
2026-04-30 19:57 -17.32630 -73.32304 34601 ft 522 kts 142°
2026-04-30 19:57 -17.35475 -73.29956 34803 ft 522 kts 142°
2026-04-30 19:57 -17.38323 -73.27606 34930 ft 523 kts 142°
2026-04-30 19:58 -17.44019 -73.22901 34924 ft 521 kts 142°
2026-04-30 19:58 -17.49705 -73.18201 34926 ft 522 kts 142°
2026-04-30 19:59 -17.55391 -73.13498 34926 ft 522 kts 142°
2026-04-30 20:00 -17.63925 -73.06430 34928 ft 522 kts 142°
2026-04-30 20:00 -17.69615 -73.01713 34924 ft 523 kts 142°
2026-04-30 20:01 -17.78144 -72.94635 34927 ft 522 kts 142°
2026-04-30 20:01 -17.83830 -72.89912 34926 ft 522 kts 142°
2026-04-30 20:02 -17.92359 -72.82819 34926 ft 522 kts 142°
2026-04-30 20:03 -18.00883 -72.75721 34935 ft 523 kts 142°
2026-04-30 20:03 -18.06569 -72.70981 34925 ft 523 kts 142°
2026-04-30 20:04 -18.12258 -72.66235 34934 ft 523 kts 142°
2026-04-30 20:05 -18.20787 -72.59113 34934 ft 522 kts 142°
2026-04-30 20:05 -18.29302 -72.51994 34935 ft 522 kts 142°
2026-04-30 20:06 -18.34974 -72.47246 34934 ft 522 kts 142°
2026-04-30 20:06 -18.40654 -72.42491 34932 ft 523 kts 142°
2026-04-30 20:07 -18.46332 -72.37734 34932 ft 523 kts 142°
2026-04-30 20:08 -18.54848 -72.30592 34935 ft 523 kts 142°
2026-04-30 20:08 -18.60522 -72.25828 34931 ft 522 kts 142°
2026-04-30 20:09 -18.66188 -72.21067 34937 ft 522 kts 142°
2026-04-30 20:09 -18.74695 -72.13910 34937 ft 522 kts 142°
2026-04-30 20:10 -18.83193 -72.06751 34937 ft 522 kts 142°
2026-04-30 20:11 -18.91693 -71.99582 34930 ft 522 kts 142°
2026-04-30 20:11 -18.97356 -71.94799 34935 ft 522 kts 142°
2026-04-30 20:12 -19.05846 -71.87622 34933 ft 522 kts 142°
2026-04-30 20:13 -19.11506 -71.82831 34933 ft 522 kts 142°
2026-04-30 20:13 -19.17163 -71.78040 34933 ft 522 kts 142°
2026-04-30 20:14 -19.22817 -71.73245 34939 ft 522 kts 142°
2026-04-30 20:14 -19.28469 -71.68449 34938 ft 522 kts 142°
2026-04-30 20:15 -19.34120 -71.63649 34937 ft 522 kts 142°
2026-04-30 20:15 -19.39768 -71.58847 34937 ft 522 kts 143°
2026-04-30 20:16 -19.45415 -71.54041 34941 ft 522 kts 143°
2026-04-30 20:16 -19.51062 -71.49231 34940 ft 522 kts 143°
2026-04-30 20:17 -19.56704 -71.44421 34938 ft 522 kts 143°
2026-04-30 20:17 -19.62350 -71.39603 34937 ft 522 kts 143°
2026-04-30 20:18 -19.67994 -71.34782 34938 ft 522 kts 143°
2026-04-30 20:18 -19.73642 -71.29954 34936 ft 522 kts 143°
2026-04-30 20:19 -19.79283 -71.25126 34935 ft 522 kts 143°
2026-04-30 20:19 -19.84925 -71.20294 34936 ft 522 kts 143°
2026-04-30 20:20 -19.90567 -71.15457 34939 ft 522 kts 143°
2026-04-30 20:20 -19.96203 -71.10620 34937 ft 522 kts 143°
2026-04-30 20:21 -20.01839 -71.05779 34940 ft 522 kts 143°
2026-04-30 20:21 -20.07474 -71.00934 34938 ft 522 kts 143°
2026-04-30 20:22 -20.13109 -70.96085 34943 ft 522 kts 143°
2026-04-30 20:22 -20.18734 -70.91239 34938 ft 521 kts 143°
2026-04-30 20:23 -20.24360 -70.86389 34940 ft 521 kts 143°
2026-04-30 20:23 -20.29982 -70.81538 34938 ft 521 kts 143°
2026-04-30 20:24 -20.35608 -70.76678 34941 ft 521 kts 143°
2026-04-30 20:24 -20.41219 -70.71818 34941 ft 521 kts 143°
2026-04-30 20:25 -20.49639 -70.64520 34938 ft 521 kts 143°
2026-04-30 20:26 -20.58055 -70.57216 34934 ft 521 kts 143°
2026-04-30 20:26 -20.66469 -70.49908 34939 ft 521 kts 143°
2026-04-30 20:27 -20.77679 -70.40158 34937 ft 521 kts 143°
2026-04-30 20:28 -20.88886 -70.30393 34947 ft 521 kts 143°
2026-04-30 20:30 -21.02890 -70.18161 34936 ft 521 kts 143°
2026-04-30 20:31 -21.19681 -70.03452 34941 ft 521 kts 143°
2026-04-30 20:32 -21.33677 -69.91157 34917 ft 521 kts 143°
2026-04-30 20:33 -21.42064 -69.83775 34912 ft 521 kts 143°
2026-04-30 20:34 -21.50445 -69.76387 34898 ft 521 kts 143°
2026-04-30 20:35 -21.58818 -69.68994 34885 ft 520 kts 143°
2026-04-30 20:35 -21.67190 -69.61591 34869 ft 520 kts 143°
2026-04-30 20:36 -21.72767 -69.56653 34870 ft 520 kts 143°
2026-04-30 20:37 -21.81128 -69.49239 34866 ft 520 kts 143°
2026-04-30 20:37 -21.86701 -69.44293 34867 ft 520 kts 143°
2026-04-30 20:38 -21.92271 -69.39343 34878 ft 520 kts 143°
2026-04-30 20:38 -21.97840 -69.34389 34889 ft 520 kts 143°
2026-04-30 20:39 -22.06187 -69.26953 34906 ft 520 kts 143°
2026-04-30 20:40 -22.14535 -69.19505 34920 ft 520 kts 143°
2026-04-30 20:40 -22.20099 -69.14534 34929 ft 520 kts 143°
2026-04-30 20:41 -22.28440 -69.07073 34932 ft 520 kts 143°
2026-04-30 20:41 -22.33999 -69.02094 34941 ft 520 kts 143°
2026-04-30 20:42 -22.39563 -68.97106 34935 ft 521 kts 143°
2026-04-30 20:43 -22.47900 -68.89621 34944 ft 520 kts 143°
2026-04-30 20:43 -22.53603 -68.84867 34954 ft 519 kts 146°
2026-04-30 20:44 -22.62223 -68.77794 34957 ft 520 kts 146°
2026-04-30 20:45 -22.73719 -68.68322 34972 ft 521 kts 146°
2026-04-30 20:45 -22.79467 -68.63579 34970 ft 521 kts 146°
2026-04-30 20:46 -22.90969 -68.54071 34960 ft 521 kts 146°
2026-04-30 20:47 -22.99608 -68.46928 34940 ft 522 kts 146°
2026-04-30 20:48 -23.08255 -68.39778 34923 ft 522 kts 146°
2026-04-30 20:48 -23.14025 -68.35001 34901 ft 522 kts 146°
2026-04-30 20:49 -23.19789 -68.30223 34901 ft 522 kts 146°
2026-04-30 20:50 -23.28435 -68.23047 34901 ft 522 kts 146°
2026-04-30 20:50 -23.34195 -68.18259 34909 ft 522 kts 146°
2026-04-30 20:51 -23.39951 -68.13469 34926 ft 522 kts 146°
2026-04-30 20:51 -23.48580 -68.06279 34959 ft 522 kts 146°
2026-04-30 20:52 -23.54338 -68.01473 34989 ft 523 kts 145°
2026-04-30 20:53 -23.62981 -67.94251 35038 ft 523 kts 145°
2026-04-30 20:53 -23.68746 -67.89426 35069 ft 524 kts 145°
2026-04-30 20:54 -23.77406 -67.82170 35104 ft 524 kts 145°
2026-04-30 20:55 -23.86048 -67.74914 35118 ft 522 kts 145°
2026-04-30 20:55 -23.91791 -67.70086 35129 ft 522 kts 145°
2026-04-30 20:56 -24.00382 -67.62853 35115 ft 520 kts 145°
2026-04-30 20:57 -24.08943 -67.55635 35104 ft 519 kts 145°
2026-04-30 20:57 -24.14606 -67.50770 35092 ft 519 kts 144°
2026-04-30 20:58 -24.23091 -67.43437 35069 ft 519 kts 144°
2026-04-30 20:58 -24.28746 -67.38544 35049 ft 519 kts 144°
2026-04-30 20:59 -24.37245 -67.31180 35035 ft 522 kts 144°
2026-04-30 21:00 -24.48610 -67.21314 35027 ft 522 kts 144°
2026-04-30 21:01 -24.57140 -67.13892 35032 ft 524 kts 144°
2026-04-30 21:02 -24.65690 -67.06440 35031 ft 524 kts 144°
2026-04-30 21:02 -24.71384 -67.01471 35032 ft 524 kts 144°
2026-04-30 21:03 -24.77078 -66.96494 35037 ft 524 kts 144°
2026-04-30 21:03 -24.82774 -66.91510 35042 ft 524 kts 144°
2026-04-30 21:04 -24.88472 -66.86518 35039 ft 525 kts 144°
2026-04-30 21:04 -24.97041 -66.79001 35070 ft 527 kts 144°
2026-04-30 21:05 -25.02754 -66.73981 35039 ft 526 kts 144°
2026-04-30 21:05 -25.08459 -66.68961 35033 ft 526 kts 144°
2026-04-30 21:06 -25.14157 -66.63942 35013 ft 525 kts 144°
2026-04-30 21:06 -25.19847 -66.58923 34961 ft 523 kts 144°
2026-04-30 21:07 -25.25505 -66.53927 34963 ft 521 kts 144°
2026-04-30 21:07 -25.31141 -66.48944 34920 ft 519 kts 144°
2026-04-30 21:08 -25.36775 -66.43956 34902 ft 520 kts 144°
2026-04-30 21:08 -25.42407 -66.38965 34879 ft 519 kts 144°
2026-04-30 21:09 -25.48038 -66.33968 34866 ft 520 kts 144°
2026-04-30 21:09 -25.53659 -66.28975 34850 ft 519 kts 144°
2026-04-30 21:10 -25.59295 -66.23961 34853 ft 521 kts 144°
2026-04-30 21:10 -25.64922 -66.18949 34844 ft 519 kts 144°
2026-04-30 21:11 -25.70547 -66.13934 34852 ft 520 kts 144°
2026-04-30 21:11 -25.76174 -66.08911 34863 ft 521 kts 143°
2026-04-30 21:12 -25.81798 -66.03880 34874 ft 521 kts 144°
2026-04-30 21:12 -25.87427 -65.98842 34873 ft 521 kts 143°
2026-04-30 21:13 -25.93056 -65.93798 34886 ft 522 kts 143°
2026-04-30 21:13 -25.98697 -65.88737 34888 ft 522 kts 143°
2026-04-30 21:14 -26.04336 -65.83671 34885 ft 523 kts 143°
2026-04-30 21:14 -26.09981 -65.78593 34883 ft 523 kts 143°
2026-04-30 21:15 -26.15626 -65.73508 34885 ft 523 kts 143°
2026-04-30 21:15 -26.21267 -65.68418 34858 ft 523 kts 143°
2026-04-30 21:16 -26.26908 -65.63322 34883 ft 523 kts 143°
2026-04-30 21:16 -26.32543 -65.58224 34878 ft 522 kts 143°
2026-04-30 21:17 -26.38171 -65.53127 34871 ft 522 kts 143°
2026-04-30 21:17 -26.43799 -65.48023 34870 ft 521 kts 143°
2026-04-30 21:18 -26.49414 -65.42923 34869 ft 522 kts 143°
2026-04-30 21:18 -26.55029 -65.37817 34869 ft 522 kts 143°
2026-04-30 21:19 -26.60652 -65.32698 34852 ft 522 kts 143°
2026-04-30 21:19 -26.66273 -65.27575 34842 ft 522 kts 143°
2026-04-30 21:20 -26.71886 -65.22450 34833 ft 522 kts 143°
2026-04-30 21:20 -26.77497 -65.17321 34829 ft 522 kts 143°
2026-04-30 21:21 -26.83109 -65.12186 34830 ft 522 kts 143°
2026-04-30 21:22 -26.92247 -65.05780 34831 ft 518 kts 153°
2026-04-30 21:23 -27.04619 -64.97588 34821 ft 518 kts 153°
2026-04-30 21:23 -27.13895 -64.91434 34810 ft 517 kts 153°
2026-04-30 21:24 -27.20078 -64.87326 34815 ft 517 kts 153°
2026-04-30 21:24 -27.26261 -64.83213 34814 ft 517 kts 153°
2026-04-30 21:25 -27.35533 -64.77034 34822 ft 518 kts 153°
2026-04-30 21:26 -27.44816 -64.70836 34822 ft 518 kts 153°
2026-04-30 21:27 -27.54104 -64.64621 34817 ft 519 kts 153°
2026-04-30 21:27 -27.60295 -64.60468 34815 ft 519 kts 153°
2026-04-30 21:28 -27.69587 -64.54227 34821 ft 519 kts 153°
2026-04-30 21:29 -27.78873 -64.47976 34826 ft 519 kts 153°
2026-04-30 21:30 -27.94343 -64.37534 34829 ft 519 kts 153°
2026-04-30 21:31 -28.09802 -64.27065 34816 ft 519 kts 153°
2026-04-30 21:32 -28.19066 -64.20774 34809 ft 518 kts 152°
2026-04-30 21:32 -28.25239 -64.16576 34814 ft 518 kts 152°
2026-04-30 21:33 -28.34487 -64.10277 34817 ft 518 kts 152°
2026-04-30 21:34 -28.40648 -64.06074 34818 ft 518 kts 152°
2026-04-30 21:34 -28.49877 -63.99767 34817 ft 517 kts 152°
2026-04-30 21:35 -28.56029 -63.95555 34822 ft 517 kts 152°
2026-04-30 21:35 -28.62171 -63.91344 34819 ft 516 kts 152°
2026-04-30 21:36 -28.68311 -63.87129 34823 ft 516 kts 152°
2026-04-30 21:37 -28.80559 -63.78697 34824 ft 515 kts 152°
2026-04-30 21:37 -28.86665 -63.74453 34872 ft 516 kts 152°
2026-04-30 21:38 -28.89720 -63.72330 35134 ft 515 kts 152°
2026-04-30 21:38 -28.92771 -63.70207 35366 ft 515 kts 152°
2026-04-30 21:38 -28.95830 -63.68077 35601 ft 515 kts 152°
2026-04-30 21:38 -28.98884 -63.65950 35834 ft 515 kts 152°
2026-04-30 21:39 -29.01935 -63.63823 36051 ft 515 kts 152°
2026-04-30 21:39 -29.04989 -63.61692 36270 ft 515 kts 153°
2026-04-30 21:39 -29.08041 -63.59561 36478 ft 515 kts 153°
2026-04-30 21:39 -29.11091 -63.57428 36680 ft 515 kts 153°
2026-04-30 21:40 -29.14140 -63.55295 36844 ft 515 kts 153°
2026-04-30 21:40 -29.17193 -63.53158 36855 ft 516 kts 153°
2026-04-30 21:40 -29.23280 -63.48892 36849 ft 514 kts 153°
2026-04-30 21:41 -29.29361 -63.44625 36849 ft 514 kts 153°
2026-04-30 21:41 -29.35440 -63.40353 36849 ft 513 kts 153°
2026-04-30 21:42 -29.41510 -63.36081 36852 ft 513 kts 153°
2026-04-30 21:42 -29.47569 -63.31799 36852 ft 512 kts 152°
2026-04-30 21:43 -29.53619 -63.27509 36855 ft 512 kts 152°
2026-04-30 21:43 -29.59669 -63.23214 36850 ft 512 kts 152°
2026-04-30 21:44 -29.65706 -63.18922 36850 ft 511 kts 152°
2026-04-30 21:44 -29.71739 -63.14627 36854 ft 511 kts 152°
2026-04-30 21:45 -29.77769 -63.10327 36852 ft 511 kts 152°
2026-04-30 21:45 -29.83794 -63.06025 36858 ft 510 kts 152°
2026-04-30 21:46 -29.89811 -63.01723 36859 ft 510 kts 152°
2026-04-30 21:46 -29.95820 -62.97420 36858 ft 510 kts 152°
2026-04-30 21:47 -30.01831 -62.93109 36856 ft 510 kts 152°
2026-04-30 21:47 -30.07835 -62.88798 36858 ft 509 kts 152°
2026-04-30 21:48 -30.13838 -62.84480 36862 ft 509 kts 152°
2026-04-30 21:48 -30.19839 -62.80158 36860 ft 509 kts 152°
2026-04-30 21:49 -30.25839 -62.75830 36865 ft 509 kts 152°
2026-04-30 21:49 -30.31843 -62.71494 36865 ft 510 kts 152°
2026-04-30 21:50 -30.37847 -62.67151 36867 ft 510 kts 152°
2026-04-30 21:50 -30.43850 -62.62805 36868 ft 510 kts 152°
2026-04-30 21:51 -30.49853 -62.58452 36867 ft 510 kts 152°
2026-04-30 21:51 -30.55857 -62.54092 36872 ft 510 kts 152°
2026-04-30 21:52 -30.61859 -62.49726 36866 ft 510 kts 152°
2026-04-30 21:52 -30.67858 -62.45356 36867 ft 510 kts 152°
2026-04-30 21:53 -30.73853 -62.40984 36868 ft 510 kts 152°
2026-04-30 21:53 -30.79853 -62.36618 36870 ft 509 kts 152°
2026-04-30 21:54 -30.85851 -62.32262 36868 ft 509 kts 152°
2026-04-30 21:54 -30.91850 -62.27898 36876 ft 509 kts 152°
2026-04-30 21:55 -30.97847 -62.23529 36872 ft 509 kts 152°
2026-04-30 21:55 -31.03842 -62.19157 36873 ft 509 kts 152°
2026-04-30 21:56 -31.09840 -62.14781 36875 ft 510 kts 152°
2026-04-30 21:56 -31.15839 -62.10397 36875 ft 510 kts 152°
2026-04-30 21:57 -31.21824 -62.05985 36876 ft 510 kts 152°
2026-04-30 21:57 -31.27800 -62.01549 36880 ft 510 kts 152°
2026-04-30 21:58 -31.33773 -61.97112 36879 ft 510 kts 152°
2026-04-30 21:58 -31.39749 -61.92665 36877 ft 510 kts 152°
2026-04-30 21:59 -31.45725 -61.88211 36874 ft 510 kts 152°
2026-04-30 22:00 -31.54680 -61.81526 36878 ft 510 kts 152°
2026-04-30 22:00 -31.63629 -61.74827 36883 ft 510 kts 152°
2026-04-30 22:01 -31.69595 -61.70355 36886 ft 510 kts 152°
2026-04-30 22:01 -31.75561 -61.65875 36885 ft 510 kts 152°
2026-04-30 22:02 -31.81513 -61.61397 36886 ft 510 kts 152°
2026-04-30 22:02 -31.87478 -61.56904 36882 ft 510 kts 152°
2026-04-30 22:03 -31.93437 -61.52407 36888 ft 510 kts 152°
2026-04-30 22:03 -31.99387 -61.47909 36879 ft 509 kts 152°
2026-04-30 22:04 -32.05339 -61.43403 36890 ft 510 kts 152°
2026-04-30 22:05 -32.14266 -61.36632 36891 ft 509 kts 152°
2026-04-30 22:05 -32.20205 -61.32118 36891 ft 509 kts 152°
2026-04-30 22:06 -32.26136 -61.27604 36888 ft 508 kts 152°
2026-04-30 22:06 -32.35009 -61.20836 36896 ft 507 kts 152°
2026-04-30 22:07 -32.40919 -61.16318 36890 ft 506 kts 152°
2026-04-30 22:07 -32.46823 -61.11800 36900 ft 506 kts 152°
2026-04-30 22:08 -32.52712 -61.07285 36898 ft 505 kts 152°
2026-04-30 22:08 -32.58596 -61.02767 36901 ft 505 kts 152°
2026-04-30 22:09 -32.64465 -60.98253 36903 ft 504 kts 152°
2026-04-30 22:09 -32.70330 -60.93736 36908 ft 503 kts 152°
2026-04-30 22:10 -32.76179 -60.89223 36909 ft 502 kts 152°
2026-04-30 22:10 -32.82027 -60.84704 36916 ft 502 kts 152°
2026-04-30 22:11 -32.90813 -60.77994 36912 ft 498 kts 156°
2026-04-30 22:12 -32.96401 -60.73093 36256 ft 505 kts 142°
2026-04-30 22:12 -32.99078 -60.70374 35271 ft 510 kts 144°
2026-04-30 22:12 -33.01813 -60.67640 34295 ft 518 kts 144°
2026-04-30 22:12 -33.04552 -60.64882 33743 ft 514 kts 143°
2026-04-30 22:13 -33.07265 -60.62149 33168 ft 510 kts 143°
2026-04-30 22:13 -33.09950 -60.59440 32625 ft 501 kts 143°
2026-04-30 22:13 -33.12569 -60.56796 32121 ft 487 kts 143°
2026-04-30 22:13 -33.15112 -60.54227 31668 ft 474 kts 143°
2026-04-30 22:14 -33.17590 -60.51720 31184 ft 462 kts 143°
2026-04-30 22:14 -33.20007 -60.49274 30707 ft 451 kts 144°
2026-04-30 22:14 -33.22368 -60.46883 30250 ft 441 kts 144°
2026-04-30 22:14 -33.24678 -60.44543 29786 ft 431 kts 144°
2026-04-30 22:15 -33.26940 -60.42248 29285 ft 428 kts 144°
2026-04-30 22:15 -33.29229 -60.39927 28816 ft 435 kts 144°
2026-04-30 22:15 -33.31540 -60.37582 28386 ft 439 kts 143°
2026-04-30 22:15 -33.33858 -60.35226 27965 ft 438 kts 144°
2026-04-30 22:16 -33.36169 -60.32876 27525 ft 436 kts 143°
2026-04-30 22:16 -33.38467 -60.30538 27081 ft 433 kts 143°
2026-04-30 22:17 -33.45221 -60.23476 25623 ft 436 kts 133°
2026-04-30 22:17 -33.46982 -60.20468 24810 ft 447 kts 126°
2026-04-30 22:17 -33.50639 -60.14301 23313 ft 461 kts 128°
2026-04-30 22:18 -33.52503 -60.11206 22825 ft 457 kts 128°
2026-04-30 22:18 -33.56168 -60.05121 22057 ft 446 kts 128°
2026-04-30 22:19 -33.59752 -59.99165 21260 ft 437 kts 128°
2026-04-30 22:19 -33.61520 -59.96223 20859 ft 434 kts 128°
2026-04-30 22:19 -33.65012 -59.90407 20087 ft 427 kts 128°
2026-04-30 22:20 -33.66735 -59.87533 19693 ft 424 kts 128°
2026-04-30 22:20 -33.70152 -59.81828 18937 ft 419 kts 128°
2026-04-30 22:20 -33.71843 -59.79001 18556 ft 417 kts 128°
2026-04-30 22:21 -33.73524 -59.76188 18168 ft 414 kts 128°
2026-04-30 22:21 -33.75194 -59.73393 17746 ft 412 kts 128°
2026-04-30 22:21 -33.76855 -59.70610 17357 ft 408 kts 128°
2026-04-30 22:21 -33.78500 -59.67852 16987 ft 405 kts 128°
2026-04-30 22:22 -33.80128 -59.65119 16617 ft 401 kts 128°
2026-04-30 22:22 -33.81743 -59.62407 16251 ft 398 kts 128°
2026-04-30 22:22 -33.83347 -59.59712 15879 ft 395 kts 128°
2026-04-30 22:22 -33.84937 -59.57045 15523 ft 392 kts 129°
2026-04-30 22:23 -33.86576 -59.54467 15270 ft 385 kts 130°
2026-04-30 22:23 -33.88189 -59.51932 14991 ft 380 kts 130°
2026-04-30 22:23 -33.89781 -59.49419 14660 ft 374 kts 130°
2026-04-30 22:23 -33.91324 -59.46978 14329 ft 361 kts 130°
2026-04-30 22:24 -33.92818 -59.44612 14007 ft 350 kts 130°
2026-04-30 22:24 -33.94268 -59.42313 13671 ft 340 kts 130°
2026-04-30 22:24 -33.95674 -59.40082 13322 ft 332 kts 129°
2026-04-30 22:24 -33.97073 -59.37862 12996 ft 337 kts 129°
2026-04-30 22:25 -33.98495 -59.35604 12660 ft 342 kts 129°
2026-04-30 22:25 -33.99932 -59.33320 12352 ft 342 kts 129°
2026-04-30 22:25 -34.01363 -59.31044 12027 ft 341 kts 129°
2026-04-30 22:25 -34.02786 -59.28781 11717 ft 338 kts 128°
2026-04-30 22:26 -34.05596 -59.24305 11098 ft 329 kts 128°
2026-04-30 22:26 -34.06939 -59.22163 10958 ft 312 kts 128°
2026-04-30 22:26 -34.08216 -59.20127 10765 ft 300 kts 128°
2026-04-30 22:27 -34.09476 -59.18115 10511 ft 307 kts 128°
2026-04-30 22:27 -34.10774 -59.16042 10244 ft 311 kts 128°
2026-04-30 22:27 -34.13345 -59.11934 9889 ft 305 kts 127°
2026-04-30 22:28 -34.15891 -59.07860 9263 ft 303 kts 127°
2026-04-30 22:28 -34.17152 -59.05841 8969 ft 300 kts 127°
2026-04-30 22:29 -34.20871 -58.99878 8099 ft 294 kts 127°
2026-04-30 22:29 -34.22093 -58.97918 7817 ft 292 kts 127°
2026-04-30 22:30 -34.26895 -58.90200 6686 ft 284 kts 127°
2026-04-30 22:31 -34.30423 -58.84519 5820 ft 280 kts 127°
2026-04-30 22:32 -34.33884 -58.78937 4987 ft 274 kts 127°
2026-04-30 22:32 -34.36151 -58.75277 4424 ft 271 kts 127°
2026-04-30 22:33 -34.39445 -58.69952 3877 ft 251 kts 127°
2026-04-30 22:33 -34.41560 -58.66774 3607 ft 235 kts 130°
2026-04-30 22:34 -34.44299 -58.62382 3240 ft 201 kts 124°
2026-04-30 22:35 -34.45785 -58.59752 3051 ft 181 kts 124°
2026-04-30 22:36 -34.48479 -58.54932 2420 ft 166 kts 124°
2026-04-30 22:36 -34.49118 -58.53786 2196 ft 163 kts 124°
2026-04-30 22:37 -34.51001 -58.50406 1564 ft 160 kts 124°
2026-04-30 22:37 -34.51622 -58.49293 1362 ft 159 kts 124°
2026-04-30 22:37 -34.52851 -58.47087 936 ft 157 kts 126°
2026-04-30 22:38 -34.54038 -58.44955 527 ft 148 kts 123°
2026-04-30 22:38 -34.55159 -58.42931 63 ft 143 kts 123°
2026-04-30 22:39 -34.55667 -58.42024 29 ft 104 kts 123°
2026-04-30 22:39 -34.56021 -58.41394 28 ft 15 kts 104°
2026-04-30 22:40 -34.55913 -58.41308 28 ft 2 kts
2026-04-30 22:41 -34.55819 -58.41319 28 ft 7 kts 303°
2026-04-30 22:41 -34.55767 -58.41411 28 ft 6 kts 304°
2026-04-30 22:42 -34.55684 -58.41488 28 ft 1 kts 13°
2026-04-30 22:43 -34.55682 -58.41487 28 ft 0 kts 13°